Location: Ab? ar R?sh Ba?r?
(24.1861°N, 32.8847°E)
Time: 11:32:53
(UTC+00:00)

Cosmos 1934 Rocket - Pass Details

Date: 24 October 2021
Orbit: 938 x 999 km, 83.0° (Epoch: 03 December)

Event Time Altitude Azimuth Distance (km) Brightness Sun altitude
Rises 15:34:18 0° 180° (S) 3,633 7.1 -5.3°
Reaches altitude 10° 15:36:48 10° 179° (S) 2,681 6.4 -5.8°
Maximum altitude 15:42:55 79° 94° (E) 968 3.9 -7.2°
Drops below altitude 10° 15:48:59 10° 8° (N) 2,658 6.1 -8.6°
Sets 15:51:27 0° 7° (N) 3,601 6.8 -9.1°
